STARLINK-35361

Last updated on Mon Oct 20 2025 00:02:05 GMT+0000 (Coordinated Universal Time)

1 65667U 25211R 25292.11293423 -.00123101 00000+0 -23137-2 0 9993 2 65667 97.6042 334.2765 0002562 9.3844 350.7453 15.48976635 5728

Satellite not in orbit

STARLINK-35361